INNOSAT 3 (RS92S0)

Last updated on Mon Sep 21 2026 00:03:15 GMT+0000 (Coordinated Universal Time)

1 64894U 25155U 26263.57197056 .00039169 00000+0 67296-3 0 9998 2 64894 97.4583 237.9017 0005295 151.9083 208.2455 15.51029664 95713
UTC large
Height (km)
Speed (km/s)
/
Latitude / Longitude
Inclination (degrees)
Orbital Period (minutes)
Azimuth
Elevation
Range (km)
Doppler Factor

Next 0 passes for location: London (51.5072 / 0.1276)

No passes found over London.
INNOSAT 3 (RS92S0)